Content
SEND FEEDBACK

Daily
Averages
Monthly
Summary
United States of America

LOUISVILLE, COLORADO


Home > North America > United States > Colorado
Elevation: 5352 feet     Latitude: 40 02N     Longitude: 105 16W

WEATHER
 
SELECT A DAY
Number of Records: 92,166;   Date Range: 3/4/10 - 10/29/14
 
SHARE

PRINT THIS DATA

[ ← Previous Day ]
WEATHER ALMANAC - JANUARY 31, 2013
[ Next Day → ]
[ °C ]   °F
Weather ElementAverageHighLow
Temperature34 °F47.8 °F (2:16 pm)21.4 °F (11:56 pm)
Dewpoint20.3 °F27.5 °F (2:56 pm)13.3 °F (1:16 am)
Humidity61.6 %96 % (11:16 pm)27 % (2:16 pm)
Barometer30.02 in30.12 in (9:36 pm)29.85 in (12:36 am)
Wind Speed7.2 mph20.7 mph (3:56 pm)
Wind Gust33.4 mph (4:16 pm)
Weather ElementAverage
Visibility10 mi
Wind DirectionSE (138.4 °)

Weather ElementTotal
Precipitation---
Heating Degree Days30.4 (Base 65)
Averaged from 69 records on January 31, 2013
WEATHER CONDITIONS BREAKOUT
WIND DIRECTION BREAKOUT
WEATHER BY HOUR - JANUARY 31, 2013
[ °C ]   °F
Local TimeTemperatureDewpointHumidityBarometerVisibilityWind DirectionWind SpeedGust SpeedPrecipitationEventsConditions
12:36 AM35.6 °F14.0 °F41 %29.85 in10.0 miWNW (300°)16.1 mph23.0 mphClear
12:56 AM36.5 °F15.6 °F43 %29.85 in10.0 miWNW (300°)11.5 mphClear
1:16 AM38.5 °F13.3 °F36 %29.86 in10.0 miNW (320°)10.4 mph16.1 mphClear
1:36 AM37.4 °F13.3 °F37 %29.85 in10.0 miNNW (330°)11.5 mph23.0 mphClear
1:56 AM38.3 °F14.4 °F38 %29.86 in10.0 miNNW (330°)12.7 mphClear
2:16 AM38.3 °F14.9 °F39 %29.87 in10.0 miNNW (340°)12.7 mphClear
2:36 AM37.8 °F15.4 °F40 %29.87 in10.0 miNNW (330°)10.4 mph16.1 mphClear
2:56 AM37.9 °F15.3 °F40 %29.89 in10.0 miWNW (290°)19.6 mph26.5 mphClear
3:16 AM38.5 °F15.1 °F39 %29.88 in10.0 miNW (310°)10.4 mph24.2 mphClear
3:36 AM37.0 °F15.1 °F41 %29.88 in10.0 miNW (320°)8.1 mphClear
3:56 AM35.6 °F14.9 °F43 %29.90 in10.0 miNNW (340°)4.6 mphClear
4:16 AM35.2 °F14.2 °F42 %29.90 in10.0 miNorth (350°)4.6 mphScattered Clouds
4:36 AM31.3 °F15.6 °F52 %29.89 in10.0 miCalmScattered Clouds
4:56 AM28.8 °F15.8 °F58 %29.90 in10.0 miCalmScattered Clouds
5:16 AM30.4 °F16.2 °F56 %29.92 in10.0 miEast (80°)10.4 mphScattered Clouds
5:36 AM28.0 °F18.3 °F67 %29.92 in10.0 miEast (100°)13.8 mph21.9 mphScattered Clouds
5:56 AM26.1 °F18.3 °F73 %29.92 in10.0 miEast (90°)12.7 mph16.1 mphScattered Clouds
6:16 AM24.8 °F18.5 °F77 %29.94 in10.0 miEast (100°)12.7 mph18.4 mphClear
6:36 AM24.4 °F19.2 °F81 %29.95 in10.0 miESE (110°)15.0 mphClear
6:56 AM24.1 °F19.6 °F83 %29.97 in10.0 miEast (100°)13.8 mphClear
7:16 AM23.5 °F19.6 °F85 %29.99 in10.0 miEast (100°)13.8 mph20.7 mphClear
7:36 AM23.0 °F19.0 °F85 %30.01 in10.0 miSE (130°)6.9 mphClear
7:56 AM23.9 °F19.6 °F84 %30.03 in10.0 miCalmClear
8:16 AM25.3 °F19.8 °F79 %30.05 in10.0 miCalmClear
8:36 AM26.4 °F19.9 °F77 %30.08 in10.0 miCalmClear
8:56 AM27.3 °F20.3 °F75 %30.08 in10.0 miCalmClear
9:16 AM28.4 °F20.5 °F72 %30.08 in10.0 miCalmClear
9:36 AM28.4 °F20.3 °F72 %30.08 in10.0 miCalmClear
9:56 AM30.7 °F21.2 °F68 %30.09 in10.0 miESE (110°)3.5 mphClear
10:16 AM32.0 °F21.7 °F66 %30.09 in10.0 miSSE (160°)5.8 mphClear
10:36 AM32.4 °F22.6 °F67 %30.09 in10.0 miSouth (190°)8.1 mphClear
10:56 AM34.9 °F23.0 °F62 %30.09 in10.0 miSSW (200°)6.9 mphClear
11:16 AM37.0 °F22.5 °F56 %30.09 in10.0 miSW (220°)8.1 mphClear
11:36 AM39.7 °F21.6 °F48 %30.08 in10.0 miCalmClear
11:56 AM41.4 °F21.0 °F44 %30.07 in10.0 miESE (110°)3.5 mphClear
12:16 PM43.2 °F21.0 °F41 %30.06 in10.0 miWNW (290°)6.9 mphClear
12:36 PM46.2 °F16.2 °F30 %30.05 in10.0 miWest (280°)12.7 mph32.2 mphClear
12:56 PM46.6 °F16.5 °F30 %30.05 in10.0 miWNW (300°)16.1 mph29.9 mphClear
1:16 PM45.3 °F20.3 °F37 %30.05 in10.0 miNNE (30°)9.2 mph16.1 mphClear
1:36 PM45.5 °F18.9 °F35 %30.05 in10.0 miEast (90°)5.8 mphClear
1:56 PM45.0 °F25.5 °F47 %30.05 in10.0 miENE (60°)5.8 mphScattered Clouds
2:16 PM47.8 °F15.1 °F27 %30.05 in10.0 miWNW (290°)9.2 mph18.4 mphClear
2:36 PM43.5 °F26.8 °F52 %30.05 in10.0 miEast (100°)9.2 mphClear
2:56 PM41.9 °F27.5 °F57 %30.05 in10.0 miESE (110°)8.1 mphClear
3:16 PM45.7 °F16.7 °F31 %30.05 in10.0 miWNW (290°)10.4 mph18.4 mphClear
3:36 PM46.6 °F16.0 °F29 %30.04 in10.0 miWNW (300°)13.8 mph21.9 mphClear
3:56 PM46.4 °F14.9 °F28 %30.04 in10.0 miNW (310°)20.7 mph28.8 mphClear
4:16 PM46.4 °F14.4 °F28 %30.04 in10.0 miWNW (300°)19.6 mph33.4 mphClear
4:36 PM45.0 °F18.5 °F35 %30.05 in10.0 miNNW (340°)11.5 mph25.3 mphClear
4:56 PM40.8 °F22.1 °F47 %30.05 in10.0 miENE (60°)8.1 mphClear
5:16 PM36.1 °F26.6 °F68 %30.05 in10.0 miEast (80°)10.4 mphClear
5:36 PM34.9 °F26.6 °F72 %30.06 in10.0 miEast (100°)8.1 mphClear
5:56 PM33.6 °F27.3 °F78 %30.06 in10.0 miENE (60°)9.2 mphClear
6:16 PM33.3 °F27.5 °F79 %30.07 in10.0 miEast (100°)10.4 mphClear
6:36 PM33.4 °F27.5 °F79 %30.07 in10.0 miEast (100°)10.4 mphClear
6:56 PM33.6 °F26.4 °F75 %30.07 in10.0 miEast (100°)6.9 mphClear
7:16 PM32.9 °F26.4 °F77 %30.08 in10.0 miSouth (190°)3.5 mphClear
7:36 PM31.8 °F26.4 °F80 %30.09 in10.0 miCalmClear
8:16 PM29.3 °F25.9 °F87 %30.10 in10.0 miCalmClear
8:36 PM27.3 °F24.8 °F90 %30.11 in10.0 miNorth (10°)4.6 mphClear
8:56 PM27.9 °F25.9 °F92 %30.11 in10.0 miCalmClear
9:16 PM28.4 °F25.7 °F90 %30.11 in10.0 miCalmClear
9:36 PM27.3 °F25.7 °F94 %30.12 in10.0 miCalmClear
9:56 PM25.7 °F23.5 °F92 %30.11 in10.0 miCalmClear
10:16 PM25.5 °F24.1 °F94 %30.11 in10.0 miCalmClear
10:36 PM25.0 °F23.7 °F95 %30.11 in10.0 miCalmClear
11:16 PM23.2 °F22.1 °F96 %30.10 in10.0 miCalmClear
11:36 PM23.7 °F22.6 °F96 %30.09 in10.0 miCalmClear
11:56 PM21.4 °F20.3 °F96 %30.09 in10.0 miCalmClear
Hourly data recorded from KEIK, located miles away from Louisville, Colorado







STORIES FROM OUR PARTNERS